Dewpoint
60 60 59 59 60 59 59 59 59 59 59 58 58 59 59 58 58 59 59 59 59 58 59 59 60 61 57 40 39 70 76 73 71 64 58 60 58 56 54 57 56 55 53 50 50 50 49
60 60 60 60 60 59 59 59 58 58 58 58 58 58 58 58 58 58 58 58 58 58 58 59 60 61 52 35 53 68 70 68 64 62 57 58 58 58 54 53 52 50 48 47 47 48 51
60 60 60 60 60 59 59 58 57 57 57 57 58 58 57 57 58 57 57 57 57 57 58 59 60 57 41 27 56 66 65 64 64 61 56 59 60 59 56 48 50 51 46 48 46 50 52
60 60 59 59 58 58 57 57 57 57 57 57 57 57 57 57 57 57 56 55 56 57 58 59 60 55 19 36 63 63 66 62 64 64 62 63 62 60 56 51 48 46 46 44 47 50 51
58 57 57 57 57 57 57 56 56 56 56 56 56 56 56 56 56 55 54 55 56 58 59 61 53 38 18 59 55 56 63 55 61 62 64 62 62 59 50 48 46 48 40 43 45 50 50
56 56 55 55 55 56 56 56 56 56 56 56 56 55 55 55 55 54 53 55 56 58 57 55 45 30 30 37 53 55 60 57 57 58 57 59 59 54 44 41 39 39 41 43 44 46 50
55 55 55 54 54 55 55 55 55 55 55 55 55 55 55 55 54 53 52 44 30 29 42 16 5 19 26 30 41 54 59 57 58 53 51 57 49 45 45 43 44 40 41 39 41 46 44
53 53 53 52 53 54 54 54 55 55 55 55 55 54 54 54 53 53 49 35 36 34 27 28 27 20 15 23 23 23 53 53 53 51 46 41 40 41 39 42 40 37 37 39 43 46 41
52 52 53 53 53 54 54 55 55 55 55 54 54 54 54 53 53 48 41 34 35 33 28 26 26 26 25 23 23 24 30 38 40 41 43 42 41 40 38 34 33 38 40 40 40 47 44
53 53 54 54 54 54 54 54 55 55 54 54 54 54 53 52 39 43 36 38 40 32 22 21 21 23 26 26 25 25 25 36 37 33 40 39 39 37 35 32 29 26 32 38 41 43 41
53 54 54 54 54 54 54 54 54 54 54 54 54 53 52 51 40 37 34 41 38 26 3 14 16 20 23 22 22 22 29 32 33 31 29 27 28 26 28 30 28 26 28 26 39 40 36
53 54 54 54 54 54 54 54 54 54 53 53 53 52 52 48 46 43 44 39 28 17 3 13 14 13 20 20 21 25 26 27 28 27 28 26 30 30 29 29 27 27 26 25 25 25 26
52 53 54 54 54 54 54 54 53 53 53 52 52 51 49 46 25 40 39 28 17 15 17 14 13 13 13 12 13 21 24 24 23 26 23 26 27 29 29 27 28 26 24 23 24 20 21
53 54 54 54 54 54 54 54 53 53 52 52 50 50 50 47 44 43 29 21 24 20 18 15 14 13 16 17 16 14 18 20 20 23 21 20 17 24 28 26 25 25 24 23 20 19 21
53 54 54 54 54 54 54 53 53 52 52 51 50 45 44 44 47 39 23 14 8 22 18 16 14 12 11 12 17 16 16 12 16 19 27 26 23 26 28 27 28 26 24 25 22 27 21
53 53 54 54 53 54 54 53 53 52 51 50 46 44 42 44 42 29 20 23 21 22 20 18 13 14 11 12 14 14 16 18 14 17 16 17 15 16 18 27 27 25 25 25 23 22 19
53 53 53 54 54 54 53 53 52 51 50 50 46 33 37 37 30 27 21 24 24 23 25 18 16 14 18 20 17 15 17 16 16 14 16 34 16 13 14 22 22 19 24 27 23 24 21
53 53 53 53 54 54 53 53 52 50 50 47 45 33 41 34 28 27 23 24 30 23 24 24 24 24 23 23 20 16 18 15 29 21 14 24 16 16 16 16 16 21 18 22 20 19 24
53 53 53 54 54 54 53 52 51 50 50 45 44 46 46 32 26 27 27 25 25 23 21 22 21 23 24 23 21 21 20 30 32 31 29 28 19 17 13 14 16 16 17 34 22 23 22
53 53 53 54 54 54 53 52 51 50 50 47 41 32 34 32 31 30 26 24 25 26 26 29 27 28 28 28 28 26 30 29 30 32 55 38 21 16 14 15 17 16 18 18 22 19 22
52 52 53 54 54 54 54 53 52 50 50 43 38 36 36 28 24 29 26 27 28 28 28 31 30 31 29 26 28 28 30 28 28 44 32 27 24 18 22 23 20 18 20 21 17 16 13
51 52 52 53 53 54 54 53 52 51 50 42 37 38 40 36 33 29 30 30 31 33 33 31 31 31 30 30 30 30 31 31 28 29 29 32 30 28 28 26 28 26 25 23 21 17 18
51 51 51 52 52 53 54 53 53 52 48 42 43 42 39 36 34 29 29 33 33 34 34 35 34 33 31 32 33 33 33 33 31 28 28 30 30 28 27 28 27 22 20 19 24 21 18
51 51 51 52 52 52 53 53 53 52 50 44 44 43 40 32 36 34 36 36 35 33 34 35 36 34 34 35 34 34 35 33 31 28 30 30 29 30 28 30 24 22 28 31 28 27 27
51 51 51 51 52 52 52 53 53 53 52 45 44 43 41 36 39 37 37 35 34 36 36 35 35 35 35 34 30 34 35 32 32 31 29 30 29 27 27 28 27 28 28 28 29 27 34
51 51 51 51 51 52 52 52 52 53 52 45 44 44 41 38 32 39 36 37 35 35 34 35 34 36 35 33 34 31 31 34 34 34 29 29 27 27 30 28 26 30 31 32 31 26 46
51 51 51 51 51 51 52 52 52 51 52 47 44 44 41 37 39 39 37 37 37 35 35 36 36 35 36 33 32 34 34 37 35 34 35 34 31 28 29 28 30 40 43 41 27 29 51
51 51 51 51 51 51 51 51 51 51 50 48 45 45 41 37 37 39 37 35 38 37 35 36 28 32 33 31 30 31 35 37 38 37 35 33 32 30 30 29 26 41 41 39 40 47 52
52 51 51 51 51 51 51 50 50 50 50 49 43 45 46 43 37 38 38 36 37 35 30 30 28 32 34 34 35 37 32 32 36 36 39 36 41 41 39 34 42 42 42 42 49 48 46
Lifted_Index
13 13 13 13 14 14 14 14 14 14 15 15 15 15 15 15 15 15 15 14 13 12 11 10 9 6 2 -0 -2 -2 -2 -2 -3 -3 -3 -4 -4 -3 -2 -2 -2 -2 -2 -1 -1 -1 -1
13 13 13 14 14 14 14 14 14 14 14 15 15 15 15 15 15 15 15 14 13 12 11 11 9 7 2 -0 -2 -2 -2 -3 -3 -3 -3 -3 -4 -4 -3 -2 -2 -2 -1 -1 -1 -1 -1
13 13 13 13 14 14 14 14 14 14 14 15 15 15 15 15 15 15 15 14 13 12 12 11 10 7 3 0 -1 -2 -2 -3 -3 -3 -3 -3 -4 -4 -4 -3 -2 -2 -1 -1 -1 -1 -1
13 13 13 13 13 14 14 14 14 14 14 14 15 15 15 15 15 15 15 14 13 12 12 11 10 6 3 1 0 -1 -2 -3 -3 -3 -3 -4 -4 -4 -4 -3 -2 -2 -1 -1 -1 -1 -1
14 14 14 15 15 15 15 15 15 14 14 14 15 15 15 15 15 14 14 13 12 12 12 11 9 6 3 2 1 -0 -1 -2 -3 -3 -3 -3 -4 -4 -4 -3 -2 -1 -1 -1 -1 -1 -1
16 16 16 16 16 16 16 16 16 16 15 15 15 15 15 14 14 13 12 11 11 11 11 10 8 5 3 2 2 1 0 -1 -2 -3 -3 -3 -3 -3 -3 -3 -2 -1 -1 -1 -1 -1 -1
16 17 17 17 17 17 17 17 17 17 16 16 15 15 14 14 13 12 10 9 10 10 9 8 7 5 3 3 3 2 1 -0 -1 -2 -2 -2 -2 -2 -1 -1 -1 -1 -1 -1 -1 -1 -1
17 17 18 18 18 18 17 17 17 17 17 16 16 15 14 13 12 11 9 9 9 9 7 6 6 5 4 4 4 3 2 1 1 0 -0 -1 -1 -1 -1 -0 -0 0 -0 -0 -0 -1 -1
18 18 18 18 18 18 17 17 17 17 17 17 16 15 14 13 11 10 9 9 9 8 6 5 5 5 5 5 5 4 3 3 2 2 1 1 -0 -0 -0 -0 0 1 0 0 -0 -1 -1
18 18 18 18 18 18 17 17 17 17 17 17 17 16 14 13 11 9 8 8 9 7 4 3 4 5 5 5 5 4 4 4 3 3 2 1 1 1 1 0 1 0 1 0 -0 -1 -1
18 18 18 18 18 17 17 17 17 17 17 17 16 16 14 13 11 9 8 8 8 5 3 2 3 4 4 4 4 4 4 4 4 3 2 2 2 2 2 1 1 1 1 1 0 -0 -0
18 18 18 18 18 18 17 17 17 17 17 16 15 15 14 13 11 9 8 8 6 4 2 2 3 4 3 3 3 3 3 3 4 3 3 3 3 3 2 2 2 1 1 0 0 -0 -0
18 18 18 18 18 18 17 17 17 17 15 14 14 13 13 12 10 9 8 7 4 2 2 3 3 3 3 3 3 3 3 3 3 3 3 3 3 3 3 2 1 1 1 0 -0 -0 -0
18 18 18 18 18 17 17 17 17 16 14 12 12 11 11 10 9 9 8 5 3 3 3 4 3 3 3 3 3 3 2 2 3 3 3 3 3 3 3 2 1 1 1 0 0 -0 -0
18 18 17 17 17 17 17 17 16 15 12 10 10 9 9 8 9 8 7 5 3 4 5 4 4 3 3 3 3 3 3 3 3 3 3 3 3 3 3 3 2 1 1 1 0 0 0
18 18 17 17 17 17 17 17 16 14 12 10 8 8 8 8 8 8 6 5 5 6 6 5 4 3 3 3 3 3 3 3 3 4 4 4 3 3 3 2 2 1 1 1 1 0 0
17 17 17 17 17 17 17 17 16 15 12 9 8 7 7 7 8 7 6 5 6 7 7 6 5 4 3 3 2 2 3 4 4 4 4 4 3 2 2 2 1 1 1 0 0 0 0
17 17 17 17 16 16 17 17 17 15 13 10 8 7 8 8 7 7 6 6 6 6 6 6 6 6 5 4 3 3 3 4 5 4 4 3 3 2 2 2 1 1 0 0 0 0 1
15 16 16 16 16 16 17 17 17 16 13 10 8 8 8 8 7 6 6 6 6 6 6 6 6 6 6 5 4 4 4 5 5 4 4 4 3 2 1 2 1 1 1 1 0 0 1
14 15 15 16 16 17 17 17 18 17 14 12 10 9 8 8 7 7 6 6 6 6 6 6 6 6 6 6 5 5 5 5 5 5 4 4 3 2 2 2 2 1 1 1 0 0 1
13 13 14 15 16 16 17 17 17 17 15 13 11 10 9 9 8 7 7 7 6 6 6 6 6 6 6 6 6 6 6 6 6 5 5 4 3 3 3 3 2 2 1 1 1 1 1
11 12 13 14 15 16 16 17 17 17 16 13 11 11 10 9 9 8 8 7 7 7 7 7 7 7 7 7 6 6 6 6 6 6 5 5 4 4 3 3 3 2 1 1 1 1 1
10 11 11 13 14 16 16 17 17 17 16 14 13 12 11 9 9 8 8 8 8 8 8 8 8 8 8 8 8 7 7 7 6 6 6 5 5 4 4 3 3 2 2 2 2 2 2
10 10 11 12 13 15 16 17 17 17 17 16 15 13 11 9 9 9 9 9 9 10 9 9 9 9 8 8 8 8 7 7 7 6 6 6 5 5 4 3 3 3 3 3 2 2 2
9 10 10 11 12 14 15 16 17 17 18 17 16 15 12 10 10 10 10 10 10 10 10 10 10 9 9 9 8 7 6 6 6 6 6 6 6 5 4 3 3 4 4 4 3 2 3
9 9 10 10 11 12 14 16 17 17 18 18 17 16 14 12 11 12 11 11 10 10 10 10 10 10 10 9 8 6 5 5 5 5 6 6 5 5 4 3 3 5 5 4 4 3 3
9 9 9 9 10 11 12 14 16 17 18 18 18 16 15 13 12 13 12 11 11 11 10 11 11 10 10 9 7 6 5 5 5 5 5 5 5 5 4 3 3 5 5 4 4 3 3
9 9 9 9 9 10 11 13 15 16 17 17 17 16 15 14 13 13 12 12 12 12 11 11 11 11 10 9 7 7 6 6 6 5 5 5 4 4 4 3 3 5 5 4 4 4 4
9 9 9 9 9 9 10 12 14 16 16 16 16 16 16 14 13 13 12 12 12 12 12 12 12 11 10 9 8 7 6 6 6 5 4 4 4 4 3 4 4 4 5 5 4 4 4